Location: Gro�bocka
(50.8204°N, 11.9702°E)
Time: 14:15:12
(UTC+00:00)

Cosmos 2184 Rocket - Pass Details

Date: 29 October 2020
Orbit: 960 x 1001 km, 82.9° (Epoch: 28 November)

Event Time Altitude Azimuth Distance (km) Brightness Sun altitude
Rises 18:32:19 0° 351° (N) 3,705 7.3 -25.8°
Reaches altitude 10° 18:34:53 10° 356° (N) 2,758 6.5 -26.2°
Enters shadow 18:40:26 56° 47° (NE) 1,174 4.1 -27.1°
